Flag for Germany Weather past 2 weeks in Freiburg, Baden-Württemberg, Germany

Now
41 °F

Scattered clouds.


Feels Like: 38 °F
Forecast: 26 / 47 °F
Wind: 6 mph from Southwest

Location: Freiburg

Current Time: Dec 22, 2014 at 10:30:00 AM

Latest Report: Dec 22, 2014 at 9:00 AM


Visibility: 41 mi

Pressure: 30.50 "Hg

Humidity: 74%

Dew point: 34 °F

Location of FreiburgLocation

Historic Weather in Freiburg — Graph

°F

Freiburg temperature yesterday

Maximum temperature yesterday: 45 °F (at 8:00 PM)
Minimum temperature yesterday: 41 °F (at 2:00 AM)
Average temperature yesterday: 43 °F

Past Weeks' High & Low Weather Summary

 TemperatureHumidityPressure
High56 °F (Dec 13, 1:00 PM)99% (Dec 16, 5:00 AM)30.59 "Hg (Dec 16, 5:00 AM)
Low30 °F (Dec 10, 4:00 AM)51% (Dec 12, 11:00 PM)29.82 "Hg (Dec 12, 6:00 PM)
Average45 °F80%30.17 "Hg
* Reported Dec 7 9:00 AM — Dec 22 9:00 AM, Freiburg, Weather by CustomWeather, © 2014

Note: Actual official high and low records may vary slightly from our data, if they occured in-between our weather recording intervals... More about our weather records

Advertising

Freiburg weather history for previous 24 hours

 ConditionsComfort  
Time TempWeatherWind HumidityBarometerVisibility
9:00 AM
Dec 22
41 °FScattered clouds.6 mph74%30.50 "Hg40 mi
8:00 AM41 °FOvercast.7 mph74%30.48 "Hg43 mi
6:00 AM42 °FOvercast.6 mph73%30.48 "Hg43 mi
5:00 AM42 °FOvercast.6 mph73%30.48 "Hg43 mi
3:00 AM43 °FOvercast.7 mph71%30.51 "Hg37 mi
2:00 AM44 °FOvercast.7 mph71%30.51 "Hg34 mi
12:00 AM44 °FOvercast.7 mph68%30.53 "Hg40 mi
11:00 PM
Dec 21
44 °FOvercast.7 mph68%30.53 "Hg34 mi
9:00 PM45 °FOvercast.8 mph67%30.55 "Hg43 mi
8:00 PM45 °FOvercast.6 mph67%30.56 "Hg43 mi
6:00 PM43 °FOvercast.6 mph71%30.54 "Hg37 mi
5:00 PM44 °FPassing clouds.102 mph72%30.55 "Hg2 mi
3:00 PM45 °FPartly sunny.6 mph72%30.55 "Hg34 mi
2:00 PM45 °FOvercast.6 mph72%30.57 "Hg34 mi
12:00 PM44 °FScattered clouds.5 mph73%30.59 "Hg28 mi
11:00 AM44 °FPartly sunny.6 mph76%30.59 "Hg22 mi
Weather by CustomWeather, © 2014

See weather overviewHow to use our weather pages